This is the latest recevied weather packets stored in our database for station/object KF0PEC-15. If no packets are shown the sender has not sent any weather packets the latest 10 day(s).
| Time | Temp. | Humidity | Pressure | Rain* | Wind** | Luminosity | Snow |
|---|---|---|---|---|---|---|---|
| 1777825517 | 18.33° C | 25% | 1012.4 hPa | 0 mm | - | 305 W/m² | - |
| 1777825000 | 17.78° C | 26% | 1012.8 hPa | 0 mm | - | 318 W/m² | - |
| 1777824485 | 17.78° C | 26% | 1012.9 hPa | 0 mm | - | 281 W/m² | - |
| 1777823950 | 17.22° C | 29% | 1013.5 hPa | 0 mm | - | 240 W/m² | - |
| 1777823350 | 17.22° C | 27% | 1013.7 hPa | 0 mm | - | 228 W/m² | - |
| 1777822820 | 17.22° C | 27% | 1013.8 hPa | 0 mm | - | 224 W/m² | - |
| 1777822240 | 17.22° C | 27% | 1013.7 hPa | 0 mm | - | 222 W/m² | - |
| 1777821755 | 17.22° C | 27% | 1013.8 hPa | 0 mm | - | 250 W/m² | - |
| 1777821235 | 17.22° C | 27% | 1013.7 hPa | 0 mm | - | 335 W/m² | - |
| 1777820735 | 17.22° C | 28% | 1014.2 hPa | 0 mm | - | 377 W/m² | - |
| 1777820150 | 16.67° C | 29% | 1014.1 hPa | 0 mm | - | 401 W/m² | - |
| 1777819600 | 15.56° C | 33% | 1015.2 hPa | 0 mm | - | 388 W/m² | - |
| 1777819070 | 14.44° C | 34% | 1016 hPa | 0 mm | - | 270 W/m² | - |
| 1777818517 | 13.89° C | 35% | 1016.6 hPa | 0 mm | - | 234 W/m² | - |
| 1777817950 | 13.33° C | 37% | 1017 hPa | 0 mm | - | 224 W/m² | - |
| 1777817360 | 12.22° C | 37% | 1017.8 hPa | 0 mm | - | 220 W/m² | - |
| 1777816860 | 11.67° C | 37% | 1018.3 hPa | 0 mm | - | 180 W/m² | - |
| 1777816330 | 11.11° C | 39% | 1018.9 hPa | 0 mm | - | 106 W/m² | - |
| 1777815765 | 10.56° C | 40% | 1019.1 hPa | 0 mm | - | 953 W/m² | - |
| 1777815165 | 10° C | 41% | 1019.6 hPa | 0 mm | - | 849 W/m² | - |
| 1777814565 | 8.89° C | 44% | 1020.3 hPa | 0 mm | - | 726 W/m² | - |
| 1777814085 | 8.89° C | 46% | 1020.6 hPa | 0 mm | - | 592 W/m² | - |
| 1777813500 | 8.89° C | 45% | 1020.6 hPa | 0 mm | - | 515 W/m² | - |
| 1777812985 | 8.33° C | 45% | 1020.6 hPa | 0 mm | - | 473 W/m² | - |
| 1777812475 | 7.78° C | 46% | 1021.1 hPa | 0 mm | - | 413 W/m² | - |
* Rain latest hour (hover to see other rain measurements)
** Current wind speed in m/s (hover to see current wind gust speed)